Meridianville, AL

8:24 AM CST on December 04, 2016 (GMT -0600)
Huntsville Madison

Weather History for KMDQ - December, 2013

Change the Weather History Date:

Friday, December 20, 2013

  Actual Average (KHSV) Record (KHSV)
Temperature  
Mean Temperature 58 °F 43 °F  
Max Temperature 64 °F 52 °F 74 °F (1978)
Min Temperature 51 °F 34 °F 10 °F (1981)
Degree Days  
Heating Degree Days 8 22  
Month to date heating degree days 403  
Since 1 July heating degree days 930  
Cooling Degree Days 0 0  
Month to date cooling degree days 0  
Year to date cooling degree days 1949  
Growing Degree Days 8 (Base 50)    
Moisture  
Dew Point 43 °F    
Average Humidity 56    
Maximum Humidity 72    
Minimum Humidity 28    
Precipitation  
Precipitation 0.00 in 0.18 in 2.18 in (2008)
Month to date precipitation 3.87  
Year to date precipitation 52.44  
Snow  
Snow 0.00 in - - ()
Month to date snowfall  
Since 1 July snowfall  
Snow Depth -    
Sea Level Pressure  
Sea Level Pressure 30.07 in    
Wind  
Wind Speed 8 mph (SSE)    
Max Wind Speed 14 mph    
Max Gust Speed 20 mph    
Visibility 10 miles    
Events Rain    
T = Trace of Precipitation, MM = Missing Value Source: NWS Daily Summary

Daily Weather History Graph

Daily Weather History Graph

Search for Another Location

Airport or City:

Trip Planner

Search our weather history database for the weather conditions in past years. The results will help you decide how hot, cold, wet, or windy it might be!

Date:

Astronomy

Dec. 20, 2013 Rise Set
Actual Time 6:49 AM CST 4:38 PM CST
Civil Twilight 6:21 AM CST 5:06 PM CST
Nautical Twilight 5:49 AM CST 5:38 PM CST
Astronomical Twilight 5:18 AM CST 6:09 PM CST
Moon 7:52 PM CST (12/20) 8:49 AM CST (12/20)
Length of Visible Light 10h 45m
Length of Day
9h 48m
Waning Gibbous, 90% of the Moon is Illuminated
Dec 20
Waning Gibbous
Dec 25
Last Quarter
Jan 1
New
Jan 7
First Quarter
Jan 15
Full

Hourly Weather History & Observations

Time (CST) Temp. Dew Point Humidity Pressure Visibility Wind Dir Wind Speed Gust Speed Precip Events Conditions
12:15 AM 51.8 °F 21.2 °F 30% 30.11 in 10.0 mi SSE 8.1 mph - N/A   Clear
12:35 AM 51.8 °F 21.2 °F 30% 30.11 in 10.0 mi SSE 9.2 mph - N/A   Scattered Clouds
12:55 AM 53.6 °F 21.2 °F 28% 30.11 in 10.0 mi SSE 10.4 mph - N/A   Mostly Cloudy
1:15 AM 53.6 °F 23.0 °F 30% 30.11 in 10.0 mi SSE 8.1 mph - N/A   Overcast
1:55 AM 51.8 °F 26.6 °F 38% 30.11 in 10.0 mi SSE 10.4 mph - N/A   Overcast
2:15 AM 53.6 °F 28.4 °F 38% 30.11 in 10.0 mi SSE 9.2 mph - N/A   Overcast
2:35 AM 53.6 °F 28.4 °F 38% 30.11 in 10.0 mi SE 9.2 mph - N/A   Overcast
2:55 AM 53.6 °F 30.2 °F 41% 30.11 in 10.0 mi SE 9.2 mph - N/A   Mostly Cloudy
3:15 AM 53.6 °F 30.2 °F 41% 30.10 in 10.0 mi SE 6.9 mph - N/A   Overcast
3:35 AM 53.6 °F 32.0 °F 44% 30.10 in 10.0 mi SE 5.8 mph - N/A   Overcast
3:55 AM 51.8 °F 32.0 °F 47% 30.11 in 10.0 mi SE 5.8 mph - N/A   Mostly Cloudy
4:15 AM 51.8 °F 32.0 °F 47% 30.11 in 10.0 mi SE 8.1 mph - N/A   Mostly Cloudy
4:35 AM 53.6 °F 33.8 °F 47% 30.10 in 10.0 mi SE 6.9 mph - N/A   Mostly Cloudy
4:55 AM 53.6 °F 33.8 °F 47% 30.11 in 10.0 mi SSE 6.9 mph - N/A   Overcast
5:15 AM 53.6 °F 35.6 °F 51% 30.11 in 10.0 mi SE 5.8 mph - N/A   Overcast
5:35 AM 53.6 °F 35.6 °F 51% 30.11 in 10.0 mi SE 6.9 mph - N/A   Overcast
5:55 AM 53.6 °F 35.6 °F 51% 30.10 in 10.0 mi SE 5.8 mph - N/A   Overcast
6:15 AM 51.8 °F 37.4 °F 58% 30.10 in 10.0 mi SE 5.8 mph - N/A   Overcast
6:35 AM 53.6 °F 35.6 °F 51% 30.10 in 10.0 mi SE 6.9 mph - N/A   Overcast
6:55 AM 53.6 °F 35.6 °F 51% 30.10 in 10.0 mi SE 5.8 mph - N/A   Overcast
7:15 AM 53.6 °F 35.6 °F 51% 30.11 in 10.0 mi SE 5.8 mph - N/A   Overcast
7:35 AM 53.6 °F 35.6 °F 51% 30.12 in 10.0 mi SE 6.9 mph - N/A   Overcast
7:55 AM 53.6 °F 35.6 °F 51% 30.12 in 10.0 mi SE 5.8 mph - N/A   Overcast
8:15 AM 53.6 °F 37.4 °F 54% 30.12 in 10.0 mi SE 8.1 mph - N/A   Overcast
8:35 AM 55.4 °F 37.4 °F 51% 30.11 in 10.0 mi SE 5.8 mph - N/A   Overcast
8:55 AM 55.4 °F 39.2 °F 54% 30.12 in 10.0 mi SE 3.5 mph - N/A   Overcast
9:15 AM 55.4 °F 39.2 °F 54% 30.12 in 10.0 mi SE 6.9 mph - N/A   Overcast
9:35 AM 57.2 °F 41.0 °F 55% 30.12 in 10.0 mi SE 8.1 mph - N/A   Overcast
9:55 AM 57.2 °F 41.0 °F 55% 30.12 in 10.0 mi SSE 8.1 mph - N/A   Overcast
10:15 AM 59.0 °F 42.8 °F 55% 30.11 in 10.0 mi SSE 9.2 mph - N/A   Overcast
10:35 AM 59.0 °F 42.8 °F 55% 30.11 in 10.0 mi South 9.2 mph - N/A   Overcast
10:55 AM 60.8 °F 44.6 °F 55% 30.09 in 10.0 mi South 11.5 mph - N/A   Overcast
11:15 AM 60.8 °F 44.6 °F 55% 30.09 in 10.0 mi South 9.2 mph - N/A Rain Light Rain
11:35 AM 60.8 °F 46.4 °F 59% 30.08 in 10.0 mi SSE 8.1 mph - N/A   Overcast
11:55 AM 62.6 °F 46.4 °F 55% 30.06 in 10.0 mi South 8.1 mph - N/A   Mostly Cloudy
12:15 PM 62.6 °F 46.4 °F 55% 30.06 in 10.0 mi South 12.7 mph 19.6 mph N/A   Mostly Cloudy
12:35 PM 62.6 °F 46.4 °F 55% 30.06 in 10.0 mi South 8.1 mph - N/A   Overcast
12:55 PM 62.6 °F 46.4 °F 55% 30.04 in 10.0 mi South 6.9 mph 17.3 mph N/A   Overcast
1:15 PM 62.6 °F 46.4 °F 55% 30.04 in 10.0 mi SSE 5.8 mph - N/A   Overcast
1:35 PM 64.4 °F 48.2 °F 56% 30.03 in 10.0 mi SSE 8.1 mph - N/A   Overcast
1:55 PM 62.6 °F 50.0 °F 63% 30.02 in 10.0 mi SSE 8.1 mph - N/A   Light Drizzle
2:15 PM 62.6 °F 51.8 °F 68% 30.02 in 10.0 mi SSE 6.9 mph - N/A   Overcast
2:35 PM 62.6 °F 51.8 °F 68% 30.02 in 10.0 mi South 5.8 mph - N/A   Overcast
2:55 PM 64.4 °F 51.8 °F 64% 30.02 in 10.0 mi South 9.2 mph - N/A   Overcast
3:15 PM 64.4 °F 51.8 °F 64% 30.01 in 10.0 mi SSE 4.6 mph - N/A   Overcast
3:35 PM 64.4 °F 51.8 °F 64% 30.02 in 10.0 mi SSE 6.9 mph - N/A   Overcast
3:55 PM 64.4 °F 50.0 °F 59% 30.03 in 10.0 mi South 8.1 mph - N/A   Overcast
4:15 PM 64.4 °F 51.8 °F 64% 30.03 in 10.0 mi SSE 6.9 mph - N/A   Overcast
4:35 PM 62.6 °F 50.0 °F 63% 30.03 in 10.0 mi SSE 5.8 mph - N/A   Overcast
4:55 PM 62.6 °F 50.0 °F 63% 30.03 in 10.0 mi SSE 8.1 mph - N/A   Overcast
5:15 PM 62.6 °F 50.0 °F 63% 30.04 in 10.0 mi SSE 5.8 mph - N/A   Overcast
5:35 PM 62.6 °F 50.0 °F 63% 30.04 in 10.0 mi SSE 8.1 mph - N/A   Overcast
5:55 PM 62.6 °F 50.0 °F 63% 30.04 in 10.0 mi SSE 9.2 mph - N/A   Overcast
6:15 PM 62.6 °F 50.0 °F 63% 30.04 in 10.0 mi SSE 9.2 mph - N/A   Overcast
6:35 PM 62.6 °F 50.0 °F 63% 30.04 in 10.0 mi SSE 6.9 mph - N/A   Overcast
6:55 PM 62.6 °F 50.0 °F 63% 30.04 in 10.0 mi SSE 10.4 mph - N/A   Overcast
7:15 PM 62.6 °F 50.0 °F 63% 30.04 in 10.0 mi SSE 9.2 mph 17.3 mph N/A   Overcast
7:35 PM 62.6 °F 50.0 °F 63% 30.04 in 10.0 mi SSE 8.1 mph - N/A   Overcast
7:55 PM 62.6 °F 50.0 °F 63% 30.04 in 10.0 mi SSE 8.1 mph - N/A   Overcast
8:15 PM 62.6 °F 50.0 °F 63% 30.04 in 10.0 mi SSE 9.2 mph 16.1 mph N/A   Overcast
8:35 PM 62.6 °F 50.0 °F 63% 30.03 in 10.0 mi SSE 9.2 mph - N/A   Overcast
8:55 PM 62.6 °F 50.0 °F 63% 30.03 in 10.0 mi SSE 6.9 mph - N/A   Overcast
9:15 PM 62.6 °F 50.0 °F 63% 30.03 in 10.0 mi SSE 11.5 mph - N/A   Overcast
9:35 PM 62.6 °F 51.8 °F 68% 30.03 in 10.0 mi SSE 8.1 mph - N/A   Overcast
9:55 PM 62.6 °F 51.8 °F 68% 30.02 in 10.0 mi SSE 9.2 mph - N/A   Overcast
10:15 PM 62.6 °F 51.8 °F 68% 30.02 in 10.0 mi SSE 8.1 mph - N/A   Overcast
10:35 PM 62.6 °F 51.8 °F 68% 30.01 in 10.0 mi SSE 8.1 mph - N/A   Overcast
10:55 PM 62.6 °F 51.8 °F 68% 30.01 in 10.0 mi SSE 11.5 mph 18.4 mph N/A   Overcast
11:15 PM 62.6 °F 53.6 °F 72% 30.00 in 10.0 mi SSE 11.5 mph 19.6 mph N/A   Overcast
11:35 PM 62.6 °F 53.6 °F 72% 30.00 in 10.0 mi SSE 11.5 mph 16.1 mph N/A   Overcast
11:55 PM 62.6 °F 53.6 °F 72% 29.99 in 10.0 mi SSE 13.8 mph - N/A   Overcast